shen-yang , China , ASIA

  • Saturday
    September 23

      Cloudy

      59 °F

      Southwest

      5~6L 

  • Sunday
    September 24

    Shower  Cloudy

    77 °F  57 °F

    Southwest  Northeast

    3~4L    

  • Monday
    September 25

    Sunny  Cloudy

    79 °F  59 °F

    Southwest  Southwest

        

  • Tuesday
    September 26

    Overcast  Overcast

    73 °F  50 °F

    Northwest  Northwest

        

  • Wednesday
    September 27

    Sunny  Sunny

    66 °F  45 °F

    Northwest  Northwest

        

  • Thursday
    September 28

    Sunny  Sunny

    64 °F  43 °F

    Northwest  Northwest

    3~4L    

  • Friday
    September 29

    Sunny  Sunny

    64 °F  45 °F

    Northwest  Northwest

        

Date   Weather Temperature Humidity Total_rain Visibility Wind
23:00 Cloudy 64°F 94.8% 0mm 12km Southwest  1.6m/s
02:00 Cloudy 65°F 95% 0mm 12km Southwest  1.5m/s
05:00 Cloudy 67°F 95% 0mm 8km Southwest  1.8m/s
08:00 Cloudy 69°F 99% 0mm 8km Southwest  2.5m/s
11:00 Shower 75°F 96.8% 4.2mm 8km Northwest  2.5m/s
14:00 Shower 77°F 95.2% 1.3mm 8km Northeast  1.9m/s
17:00 Sunny 76°F 95.5% 0mm 8km Northeast  1.1m/s
20:00 Cloudy 59°F 91.9% 0mm 8km Northeast  1.3m/s
23:00 Cloudy 61°F 95.6% 0mm 4km Southeast  0.3m/s
02:00 Cloudy 59°F 98% 0mm 8km Southeast  0.2m/s
05:00 Cloudy 58°F 97.1% 0mm 0.8km Southeast  0.8m/s
08:00 Cloudy 62°F 94.8% 0mm 4km Southeast  0.7m/s
11:00 Sunny 76°F 75.9% 0mm 12km Southeast  2.6m/s
14:00 Sunny 78°F 74.2% 0mm 12km Southwest  2.5m/s
17:00 Sunny 76°F 76.9% 0mm 12km Southwest  2.0m/s
20:00 Sunny 70°F 70.3% 0mm 12km Southwest  1.7m/s
23:00 Cloudy 68°F 95.7% 0mm 8km Southwest  0.7m/s
02:00 Cloudy 68°F 95.8% 0mm 4km Southwest  0.9m/s
05:00 Cloudy 66°F 96% 0mm 8km Southwest  1.5m/s
08:00 Cloudy 69°F 90.1% 0mm 8km Southwest  2.2m/s
11:00 Overcast 73°F 84.7% 0mm 8km Southwest  4.0m/s
14:00 Overcast 68°F 89.7% 0mm 12km Northwest  3.7m/s
17:00 Overcast 61°F 91.3% 0mm 12km Northeast  2.0m/s
20:00 Overcast 59°F 82.5% 0mm 8km Northeast  1.5m/s
23:00 Overcast 55°F 98% 0mm 12km Northeast  1.1m/s
02:00 Overcast 54°F 94.7% 0mm 0.4km Northeast  1.5m/s
05:00 Overcast 52°F 92.3% 0mm 8km Northeast  2.0m/s
08:00 Overcast 50°F 86.1% 0mm 8km Northwest  2.0m/s
11:00 Sunny 64°F 66.6% 0mm 12km Northwest  3.3m/s
14:00 Sunny 66°F 60.3% 0mm 12km Northwest  3.7m/s
17:00 Sunny 62°F 66.8% 0mm 12km Northwest  1.8m/s
20:00 Sunny 56°F 57.7% 0mm 12km Southwest  0.8m/s
23:00 Sunny 52°F 69% 0mm 12km Southwest  0.8m/s
02:00 Sunny 49°F 72.6% 0mm 12km Southwest  1.3m/s
05:00 Sunny 45°F 81.2% 0mm 8km Southwest  1.8m/s
08:00 Sunny 53°F 74.4% 0mm 12km Southwest  2.4m/s
11:00 Sunny 57°F 53.9% 0mm 12km Northwest  3.5m/s
14:00 Sunny 64°F 53.2% 0mm 12km Southwest  4.3m/s
17:00 Sunny 55°F 58.3% 0mm 12km Northwest  2.0m/s
20:00 Sunny 52°F 49.6% 0mm 8km Northwest  1.0m/s
23:00 Sunny 48°F 57% 0mm 12km Northwest  0.9m/s
02:00 Sunny 43°F 63.4% 0mm 8km Northwest  1.5m/s
05:00 Sunny 43°F 58.3% 0mm 12km Southwest  1.5m/s
08:00 Sunny 51°F 57.2% 0mm 12km Northwest  2.0m/s
11:00 Sunny 61°F 56.2% 0mm 12km Northwest  3.5m/s
14:00 Sunny 64°F 57.8% 0mm 12km Northwest  2.2m/s
17:00 Sunny 59°F 55.9% 0mm 12km Northwest  2.1m/s
20:00 Sunny 55°F 54% 0mm 8km Southwest  1.2m/s
23:00 Sunny 51°F 67.5% 0mm 12km Southwest  1.0m/s
02:00 Sunny 45°F 83.6% 0mm 4km Southeast  1.7m/s
05:00 Sunny 47°F 70.2% 0mm 0.8km Northwest  1.5m/s